Weather History for Marshall D Hunter AP, Marshal, AK

Change the Weather History Date:

Friday, December 20, 2013

  Actual Average (PASM) Record (PASM)
Temperature  
Mean Temperature 26 °F -  
Max Temperature 35 °F 8 °F 39 °F (2000)
Min Temperature 17 °F 0 °F -20 °F (2012)
Degree Days  
Heating Degree Days 39    
Moisture  
Dew Point 23 °F    
Average Humidity 89    
Maximum Humidity 93    
Minimum Humidity 79    
Precipitation  
Precipitation 0.08 in - - ()
Sea Level Pressure  
Sea Level Pressure 29.30 in    
Wind  
Wind Speed 15 mph (ENE)    
Max Wind Speed 21 mph    
Max Gust Speed 25 mph    
Visibility 3 miles    
Events Rain , Snow    
Averages and records for this station are not official NWS values.
T = Trace of Precipitation, MM = Missing Value Source: NWS Daily Summary

Daily Weather History Graph

Daily Weather History Graph

Search for Another Location

Airport:

Trip Planner

Search our weather history database for the weather conditions in past years. The results will help you decide how hot, cold, wet, or windy it might be!

Date:

Astronomy

Dec. 20, 2013 Rise Set
Actual Time 11:09 AM AKST 4:22 PM AKST
Civil Twilight 10:04 AM AKST 5:27 PM AKST
Nautical Twilight 9:02 AM AKST 6:29 PM AKST
Astronomical Twilight 8:07 AM AKST 7:24 PM AKST
Moon 9:00 PM AKST (12/20) 12:08 PM AKST (12/20)
Length of Visible Light 7h 22m
Length of Day
5h 12m
Waning Gibbous, 89% of the Moon is Illuminated
Dec 20
Waning Gibbous
Dec 25
Last Quarter
Jan 1
New
Jan 7
First Quarter
Jan 15
Full

Hourly Weather History & Observations

Time (AKST) Temp. Windchill Dew Point Humidity Pressure Visibility Wind Dir Wind Speed Gust Speed Precip Events Conditions
12:08 AM 17.6 °F 5.0 °F 12.2 °F 79% 29.41 in 1.2 mi NE 11.5 mph - 0.00 in Snow Light Snow
12:12 AM 17.6 °F 4.3 °F 12.2 °F 79% 29.41 in 1.5 mi ENE 12.7 mph - 0.00 in Snow Light Snow
12:26 AM 17.6 °F 3.7 °F 12.2 °F 79% 29.41 in 3.0 mi ENE 13.8 mph - 0.00 in Snow Light Snow
12:43 AM 17.6 °F 3.7 °F 12.2 °F 79% 29.40 in 4.0 mi NE 13.8 mph - 0.00 in Snow Light Snow
12:56 AM 18.1 °F 5.6 °F 13.1 °F 81% 29.37 in 3.0 mi NE 11.5 mph - 0.00 in Snow Light Snow
1:22 AM 17.6 °F 5.0 °F 14.0 °F 86% 29.40 in 2.0 mi NE 11.5 mph - 0.00 in Snow Light Snow
1:38 AM 17.6 °F 3.7 °F 14.0 °F 86% 29.39 in 1.5 mi NE 13.8 mph - 0.00 in Snow Light Snow
1:44 AM 17.6 °F 4.3 °F 14.0 °F 86% 29.39 in 1.0 mi NE 12.7 mph - 0.00 in Snow Light Snow
1:56 AM 18.1 °F 4.4 °F 14.0 °F 84% 29.36 in 0.8 mi NE 13.8 mph - 0.00 in Snow Light Snow
2:09 AM 17.6 °F 2.7 °F 14.0 °F 86% 29.38 in 1.0 mi ENE 16.1 mph - 0.00 in Snow Light Snow
2:14 AM 17.6 °F 3.2 °F 14.0 °F 86% 29.38 in 1.5 mi ENE 15.0 mph - 0.00 in Snow Light Snow
2:20 AM 17.6 °F 3.2 °F 14.0 °F 86% 29.38 in 3.0 mi ENE 15.0 mph - 0.00 in Snow Light Snow
2:32 AM 17.6 °F 2.7 °F 14.0 °F 86% 29.38 in 2.5 mi ENE 16.1 mph - 0.00 in Snow Light Snow
2:44 AM 17.6 °F 4.3 °F 15.8 °F 93% 29.38 in 1.8 mi ENE 12.7 mph - 0.00 in Snow Light Snow
2:56 AM 17.6 °F 3.7 °F 14.0 °F 86% 29.38 in 1.8 mi NE 13.8 mph - N/A Snow Light Snow
3:11 AM 17.6 °F 3.7 °F 15.8 °F 93% 29.38 in 2.5 mi NE 13.8 mph - 0.00 in Snow Light Snow
3:56 AM 18.1 °F 3.4 °F 14.0 °F 84% 29.34 in 1.2 mi ENE 16.1 mph - 0.00 in Snow Light Snow
4:37 AM 17.6 °F 3.2 °F 15.8 °F 93% 29.37 in 1.5 mi NE 15.0 mph - 0.00 in Snow Light Snow
4:56 AM 19.0 °F 3.6 °F 15.1 °F 85% 29.33 in 2.0 mi ENE 18.4 mph - 0.00 in Snow Light Snow
5:01 AM 19.4 °F 4.1 °F 15.8 °F 86% 29.36 in 3.0 mi ENE 18.4 mph - 0.00 in Snow Light Snow
5:15 AM 19.4 °F 4.5 °F 15.8 °F 86% 29.36 in 2.0 mi ENE 17.3 mph - 0.00 in Snow Light Snow
5:56 AM 21.2 °F 5.6 °F 17.6 °F 86% 29.34 in 2.0 mi ENE 20.7 mph - N/A Snow Light Snow
6:10 AM 21.2 °F 6.4 °F 17.6 °F 86% 29.34 in 1.8 mi ENE 18.4 mph - 0.00 in Snow Light Snow
6:29 AM 21.2 °F 6.4 °F 19.4 °F 93% 29.35 in - ENE 18.4 mph - 0.00 in Snow Light Snow
6:42 AM 21.2 °F 6.0 °F 19.4 °F 93% 29.35 in 9.0 mi ENE 19.6 mph - 0.00 in Snow Light Snow
6:56 AM 22.1 °F 8.0 °F 18.1 °F 85% 29.31 in 6.0 mi ENE 17.3 mph - 0.00 in   Overcast
7:56 AM 23.0 °F 8.3 °F 20.1 °F 89% 29.30 in 8.0 mi ENE 19.6 mph - 0.00 in   Overcast
8:56 AM 24.8 °F 10.3 °F 21.2 °F 86% 29.31 in 10.0 mi East 20.7 mph - N/A   Overcast
9:56 AM 25.2 °F 12.4 °F 23.0 °F 91% 29.28 in 4.0 mi ENE 16.1 mph - 0.00 in   Overcast
10:56 AM 26.1 °F 13.1 °F 24.1 °F 92% 29.28 in 3.0 mi ENE 17.3 mph - 0.00 in   Overcast
11:04 AM 26.6 °F 12.7 °F 24.8 °F 93% 29.31 in 2.5 mi ENE 20.7 mph - N/A   Overcast
11:12 AM 26.6 °F 13.1 °F 24.8 °F 93% 29.31 in 1.2 mi ENE 19.6 mph - 0.00 in   Overcast
11:21 AM 26.6 °F 14.3 °F 24.8 °F 93% 29.30 in 1.5 mi ENE 16.1 mph - 0.00 in   Overcast
11:36 AM 26.6 °F 13.8 °F 24.8 °F 93% 29.30 in 3.0 mi ENE 17.3 mph - 0.00 in   Overcast
11:56 AM 28.4 °F - 26.6 °F 93% 29.30 in 4.0 mi Calm Calm - N/A   Overcast
12:56 PM 31.1 °F 20.1 °F 28.0 °F 88% 29.26 in 5.0 mi East 16.1 mph - 0.02 in   Overcast
1:56 PM 31.1 °F 19.7 °F 28.0 °F 88% 29.24 in 10.0 mi ENE 17.3 mph - 0.00 in   Overcast
2:56 PM 32.0 °F 20.1 °F 28.4 °F 87% 29.24 in 4.0 mi East 19.6 mph - N/A   Overcast
3:03 PM 32.0 °F 20.5 °F 28.4 °F 87% 29.24 in 2.5 mi East 18.4 mph - N/A   Overcast
3:12 PM 30.2 °F 18.5 °F 28.4 °F 93% 29.24 in 3.0 mi East 17.3 mph - N/A   Overcast
3:24 PM 30.2 °F 17.8 °F 28.4 °F 93% 29.24 in 2.0 mi East 19.6 mph - N/A   Overcast
3:41 PM 30.2 °F 17.8 °F 28.4 °F 93% 29.23 in 1.8 mi East 19.6 mph - N/A   Overcast
3:56 PM 31.1 °F 19.3 °F 29.1 °F 92% 29.20 in 2.0 mi East 18.4 mph - N/A   Overcast
4:11 PM 30.2 °F 18.5 °F 28.4 °F 93% 29.22 in 3.0 mi East 17.3 mph - N/A   Overcast
4:16 PM 30.2 °F 18.9 °F 28.4 °F 93% 29.22 in 1.8 mi East 16.1 mph - N/A   Overcast
4:30 PM 30.2 °F 18.1 °F 28.4 °F 93% 29.22 in 2.0 mi East 18.4 mph - N/A   Overcast
4:56 PM 31.1 °F 20.1 °F 29.1 °F 92% 29.19 in 4.0 mi East 16.1 mph - N/A   Overcast
5:10 PM 30.2 °F 19.3 °F 28.4 °F 93% 29.22 in 2.5 mi East 15.0 mph - N/A   Overcast
5:38 PM 32.0 °F 21.6 °F 30.2 °F 93% 29.23 in 2.5 mi East 15.0 mph - 0.00 in   Overcast
5:56 PM 32.0 °F 21.6 °F 30.2 °F 93% 29.23 in 2.5 mi East 15.0 mph - N/A   Overcast
6:04 PM 32.0 °F 22.1 °F 30.2 °F 93% 29.23 in 3.0 mi East 13.8 mph - 0.00 in   Overcast
6:17 PM 32.0 °F 21.6 °F 30.2 °F 93% 29.23 in 2.0 mi East 15.0 mph - 0.01 in   Mostly Cloudy
6:24 PM 32.0 °F 22.5 °F 30.2 °F 93% 29.22 in 3.0 mi East 12.7 mph - 0.02 in   Overcast
6:39 PM 32.0 °F 22.5 °F 30.2 °F 93% 29.23 in 2.5 mi East 12.7 mph - 0.02 in   Overcast
6:56 PM 32.0 °F 21.6 °F 30.0 °F 92% 29.20 in 2.5 mi East 15.0 mph - 0.02 in   Mostly Cloudy
7:08 PM 32.0 °F 22.5 °F 30.2 °F 93% 29.23 in 5.0 mi East 12.7 mph - 0.00 in   Mostly Cloudy
7:44 PM 32.0 °F 25.6 °F 30.2 °F 93% 29.23 in 3.0 mi East 6.9 mph - 0.02 in   Overcast
7:56 PM 32.9 °F 25.9 °F 31.1 °F 93% 29.20 in 3.0 mi ENE 8.1 mph - 0.04 in Snow Light Snow
8:03 PM 32.0 °F 23.6 °F 30.2 °F 93% 29.23 in 2.5 mi ENE 10.4 mph - 0.01 in Snow Light Snow
8:55 PM 33.8 °F 23.5 °F 32.0 °F 93% 29.24 in 5.0 mi SSE 16.1 mph - N/A Snow Light Snow
11:06 PM 35.6 °F 24.8 °F 33.8 °F 93% 29.26 in 1.8 mi South 19.6 mph - 0.00 in Rain Light Rain
11:15 PM 35.6 °F 25.5 °F 33.8 °F 93% 29.26 in 2.5 mi South 17.3 mph - 0.00 in Rain Light Rain
11:56 PM 35.6 °F 24.8 °F 33.8 °F 93% 29.25 in 3.0 mi South 19.6 mph 25.3 mph N/A Rain Light Rain